| time (UTC) | temp F | wind direction | speed knots | gust knots | rain 1hr in | rain 24hr in | rain mn in | humidity % | barometer mb |
| 20260906043111 | 70 | 311 | 0.9 | 2.6 | 0.00 | 0.30 | 0.00 | 93 | 1015.9 |
| 20260906041608 | 70 | 329 | 1.7 | 2.6 | 0.00 | 0.30 | 0.00 | 93 | 1016.0 |
| 20260906040120 | 69 | 335 | 0.9 | 2.6 | 0.00 | 0.30 | 0.00 | 94 | 1016.3 |
| 20260906034605 | 70 | 333 | 0.9 | 1.7 | 0.00 | 0.30 | 0.30 | 93 | 1016.2 |
| 20260906033104 | 71 | 334 | 0.0 | 1.7 | 0.00 | 0.30 | 0.30 | 91 | 1016.3 |
| 20260906031612 | 71 | 336 | 1.7 | 3.5 | 0.00 | 0.30 | 0.30 | 93 | 1016.2 |
| 20260906030110 | 71 | 0 | 0.0 | 0.9 | 0.00 | 0.30 | 0.30 | 92 | 1016.3 |
| 20260906024607 | 72 | 0 | 0.0 | 1.7 | 0.00 | 0.30 | 0.30 | 90 | 1016.0 |
| 20260906023130 | 72 | 0 | 0.0 | 3.5 | 0.00 | 0.30 | 0.30 | 92 | 1015.9 |
| 20260906021603 | 72 | 0 | 0.0 | 0.0 | 0.00 | 0.30 | 0.30 | 92 | 1016.0 |
| 20260906014629 | 73 | 0 | 0.0 | 0.0 | 0.00 | 0.30 | 0.30 | 93 | 1016.0 |
| 20260906013107 | 73 | 0 | 0.0 | 2.6 | 0.00 | 0.30 | 0.30 | 93 | 1015.7 |
| 20260906011605 | 73 | 340 | 1.7 | 3.5 | 0.00 | 0.30 | 0.30 | 94 | 1015.8 |
| 20260906010107 | 74 | 310 | 0.9 | 2.6 | 0.00 | 0.30 | 0.30 | 93 | 1015.7 |
| 20260906004614 | 74 | 0 | 0.0 | 3.5 | 0.00 | 0.30 | 0.30 | 94 | 1015.5 |
| 20260906003109 | 75 | 360 | 0.9 | 3.5 | 0.00 | 0.30 | 0.30 | 94 | 1015.2 |
| 20260906001605 | 75 | 360 | 0.9 | 2.6 | 0.00 | 0.30 | 0.30 | 93 | 1015.1 |
| 20260906000110 | 76 | 0 | 0.0 | 0.0 | 0.00 | 0.30 | 0.30 | 92 | 1015.2 |
| 20260905234606 | 77 | 0 | 0.0 | 0.0 | 0.00 | 0.30 | 0.30 | 90 | 1015.0 |
| 20260905233111 | 78 | 0 | 0.0 | 0.0 | 0.00 | 0.30 | 0.30 | 88 | 1015.0 |
| 20260905231603 | 80 | 0 | 0.0 | 0.9 | 0.00 | 0.30 | 0.30 | 85 | 1014.7 |
| 20260905230109 | 81 | 144 | 0.9 | 2.6 | 0.00 | 0.30 | 0.30 | 81 | 1014.8 |
| 20260905224609 | 80 | 0 | 0.0 | 1.7 | 0.00 | 0.30 | 0.30 | 83 | 1014.9 |
| 20260905223103 | 82 | 115 | 0.9 | 3.5 | 0.00 | 0.30 | 0.30 | 79 | 1014.7 |
| 20260905221602 | 83 | 85 | 0.0 | 2.6 | 0.00 | 0.30 | 0.30 | 79 | 1014.6 |
| 20260905220125 | 82 | 80 | 1.7 | 5.2 | 0.00 | 0.30 | 0.30 | 78 | 1014.7 |
| 20260905214605 | 81 | 108 | 3.5 | 7.0 | 0.00 | 0.30 | 0.30 | 77 | 1015.0 |
| 20260905213107 | 82 | 352 | 1.7 | 4.3 | 0.00 | 0.30 | 0.30 | 79 | 1015.1 |
| 20260905211604 | 79 | 261 | 0.9 | 2.6 | 0.00 | 0.30 | 0.30 | 86 | 1015.1 |
| 20260905210107 | 78 | 293 | 0.0 | 2.6 | 0.00 | 0.30 | 0.30 | 85 | 1014.9 |
| 20260905204605 | 76 | 123 | 0.9 | 2.6 | 0.00 | 0.30 | 0.30 | 87 | 1015.4 |
| 20260905203102 | 74 | 0 | 0.9 | 3.5 | 0.00 | 0.30 | 0.30 | 89 | 1015.8 |
| 20260905201600 | 72 | 327 | 1.7 | 4.3 | 0.00 | 0.30 | 0.30 | 92 | 1015.7 |
| 20260905200109 | 72 | 40 | 0.0 | 2.6 | 0.00 | 0.30 | 0.30 | 91 | 1015.7 |
| 20260905194607 | 71 | 0 | 0.0 | 1.7 | 0.00 | 0.30 | 0.30 | 92 | 1016.2 |
| 20260905193104 | 71 | 343 | 0.9 | 2.6 | 0.00 | 0.30 | 0.30 | 91 | 1016.1 |
| 20260905191606 | 71 | 346 | 1.7 | 4.3 | 0.00 | 0.30 | 0.30 | 89 | 1016.2 |
| 20260905190116 | 70 | 307 | 2.6 | 5.2 | 0.05 | 0.30 | 0.30 | 91 | 1016.0 |
| 20260905184607 | 71 | 307 | 1.7 | 4.3 | 0.30 | 0.30 | 0.30 | 91 | 1015.7 |
| 20260905183125 | 71 | 299 | 2.6 | 4.3 | 0.30 | 0.30 | 0.30 | 90 | 1016.0 |
| 20260905181606 | 71 | 140 | 4.3 | 13.9 | 0.30 | 0.30 | 0.30 | 84 | 1016.2 |
| 20260905180104 | 78 | 113 | 8.7 | 23.5 | 0.23 | 0.23 | 0.23 | 67 | 1017.7 |
| 20260905174606 | 92 | 22 | 1.7 | 5.2 | 0.00 | 0.00 | 0.00 | 58 | 1016.4 |
| 20260905173101 | 94 | 288 | 1.7 | 10.4 | 0.00 | 0.00 | 0.00 | 54 | 1016.9 |
| 20260905171604 | 93 | 265 | 3.5 | 9.6 | 0.00 | 0.00 | 0.00 | 57 | 1017.0 |
| 20260905170104 | 94 | 309 | 2.6 | 9.6 | 0.00 | 0.00 | 0.00 | 55 | 1017.1 |
| 20260905164608 | 92 | 106 | 2.6 | 9.6 | 0.00 | 0.00 | 0.00 | 56 | 1017.2 |
| 20260905163101 | 93 | 165 | 0.9 | 7.0 | 0.00 | 0.00 | 0.00 | 57 | 1017.4 |
| 20260905161601 | 91 | 305 | 2.6 | 6.1 | 0.00 | 0.00 | 0.00 | 61 | 1017.5 |
| 20260905160123 | 92 | 220 | 1.7 | 5.2 | 0.00 | 0.00 | 0.00 | 61 | 1017.8 |
| 20260905154604 | 90 | 197 | 1.7 | 4.3 | 0.00 | 0.00 | 0.00 | 65 | 1017.7 |
| 20260905153111 | 89 | 144 | 0.9 | 4.3 | 0.00 | 0.00 | 0.00 | 66 | 1017.8 |
| 20260905151610 | 88 | 154 | 1.7 | 4.3 | 0.00 | 0.00 | 0.00 | 65 | 1017.7 |
| 20260905150101 | 88 | 163 | 0.9 | 5.2 | 0.00 | 0.00 | 0.00 | 67 | 1017.6 |
| 20260905144603 | 87 | 88 | 0.9 | 3.5 | 0.00 | 0.00 | 0.00 | 69 | 1017.6 |
| 20260905143102 | 86 | 121 | 0.9 | 3.5 | 0.00 | 0.00 | 0.00 | 77 | 1017.6 |
| 20260905141605 | 85 | 94 | 2.6 | 5.2 | 0.00 | 0.00 | 0.00 | 78 | 1017.7 |
| 20260905140109 | 84 | 148 | 1.7 | 3.5 | 0.00 | 0.00 | 0.00 | 78 | 1017.6 |
| 20260905134605 | 84 | 126 | 0.9 | 4.3 | 0.00 | 0.00 | 0.00 | 79 | 1017.7 |
| 20260905133106 | 84 | 0 | 0.0 | 0.0 | 0.00 | 0.00 | 0.00 | 80 | 1017.7 |
| 20260905131611 | 82 | 0 | 0.0 | 0.0 | 0.00 | 0.00 | 0.00 | 82 | 1017.7 |
| 20260905130112 | 80 | 327 | 0.0 | 1.7 | 0.00 | 0.00 | 0.00 | 86 | 1017.7 |
| 20260905124605 | 79 | 0 | 0.0 | 0.0 | 0.00 | 0.00 | 0.00 | 86 | 1017.6 |
| 20260905123101 | 77 | 0 | 0.9 | 2.6 | 0.00 | 0.00 | 0.00 | 89 | 1017.6 |
| 20260905121604 | 75 | 317 | 0.0 | 1.7 | 0.00 | 0.00 | 0.00 | 89 | 1017.6 |
| 20260905120114 | 73 | 0 | 0.0 | 0.9 | 0.00 | 0.00 | 0.00 | 93 | 1017.4 |
| 20260905114608 | 71 | 360 | 0.0 | 1.7 | 0.00 | 0.00 | 0.00 | 95 | 1017.3 |
| 20260905113105 | 71 | 0 | 0.0 | 1.7 | 0.00 | 0.00 | 0.00 | 95 | 1017.0 |
| 20260905111613 | 70 | 327 | 0.9 | 2.6 | 0.00 | 0.00 | 0.00 | 95 | 1016.8 |
| 20260905110105 | 70 | 304 | 1.7 | 2.6 | 0.00 | 0.00 | 0.00 | 95 | 1016.7 |
| 20260905104607 | 71 | 360 | 0.0 | 1.7 | 0.00 | 0.00 | 0.00 | 95 | 1016.5 |
| 20260905103105 | 71 | 360 | 0.9 | 2.6 | 0.00 | 0.00 | 0.00 | 95 | 1016.6 |
| 20260905101606 | 71 | 360 | 0.9 | 2.6 | 0.00 | 0.00 | 0.00 | 95 | 1016.3 |
| 20260905100106 | 70 | 304 | 0.9 | 1.7 | 0.00 | 0.00 | 0.00 | 95 | 1016.3 |
| 20260905094608 | 71 | 0 | 0.0 | 0.9 | 0.00 | 0.00 | 0.00 | 94 | 1016.2 |
| 20260905093105 | 71 | 0 | 0.0 | 1.7 | 0.00 | 0.00 | 0.00 | 94 | 1016.2 |
| 20260905091609 | 71 | 0 | 0.0 | 1.7 | 0.00 | 0.00 | 0.00 | 93 | 1016.3 |
| 20260905084619 | 72 | 309 | 0.9 | 3.5 | 0.00 | 0.00 | 0.00 | 93 | 1016.2 |
| 20260905083104 | 72 | 302 | 2.6 | 3.5 | 0.00 | 0.00 | 0.00 | 94 | 1016.4 |
| 20260905081603 | 72 | 330 | 0.9 | 2.6 | 0.00 | 0.00 | 0.00 | 93 | 1016.6 |
| 20260905074606 | 72 | 306 | 0.9 | 3.5 | 0.00 | 0.00 | 0.00 | 94 | 1017.1 |
| 20260905073106 | 72 | 331 | 1.7 | 2.6 | 0.00 | 0.00 | 0.00 | 93 | 1017.0 |
| 20260905071608 | 72 | 325 | 1.7 | 4.3 | 0.00 | 0.00 | 0.00 | 94 | 1017.1 |
| 20260905070106 | 72 | 328 | 0.9 | 1.7 | 0.00 | 0.00 | 0.00 | 94 | 1017.3 |
| 20260905064559 | 72 | 328 | 0.9 | 3.5 | 0.00 | 0.00 | 0.00 | 94 | 1017.5 |
| 20260905063104 | 72 | 313 | 0.9 | 2.6 | 0.00 | 0.00 | 0.00 | 94 | 1017.7 |
| 20260905061610 | 72 | 101 | 0.9 | 2.6 | 0.00 | 0.00 | 0.00 | 94 | 1017.8 |
| 20260905060104 | 73 | 0 | 0.0 | 1.7 | 0.00 | 0.00 | 0.00 | 94 | 1018.1 |
| 20260905054602 | 73 | 0 | 0.0 | 1.7 | 0.00 | 0.00 | 0.00 | 93 | 1018.4 |
| 20260905053141 | 74 | 104 | 0.0 | 2.6 | 0.00 | 0.00 | 0.00 | 93 | 1018.5 |
| 20260905051604 | 74 | 0 | 0.0 | 2.6 | 0.00 | 0.00 | 0.00 | 93 | 1018.5 |
| 20260905050106 | 74 | 0 | 0.0 | 1.7 | 0.00 | 0.00 | 0.00 | 93 | 1018.4 |
| 20260905044602 | 74 | 0 | 0.0 | 1.7 | 0.00 | 0.00 | 0.00 | 93 | 1018.4 |